Cloud_Cover
0 0 0 0 3 15 26 4 0 0 0 0 0 0 0 0 0 0 0 0 0 5 4 2 68 100 100 100 100 100 100 66
31 1 0 0 28 29 30 25 12 1 1 7 12 4 0 0 0 0 0 0 0 0 0 0 0 36 65 63 100 100 100 70
1 23 42 25 33 6 16 22 30 38 19 17 99 19 4 0 1 0 0 0 0 0 0 0 0 2 99 100 94 100 91 6
62 5 58 48 91 55 11 9 31 41 54 71 100 74 38 13 8 1 0 0 0 0 0 0 3 20 48 100 100 100 50 24
92 100 76 90 56 81 99 26 65 57 95 100 100 95 61 49 47 96 50 9 28 15 14 31 24 20 19 76 100 78 32 32
0 7 95 66 5 82 82 99 98 88 100 100 100 100 100 78 63 53 67 74 70 33 34 32 24 3 0 12 100 100 62 25
3 22 34 6 7 5 2 14 100 100 100 100 100 100 100 95 97 43 78 100 82 72 29 16 20 5 0 1 17 77 92 28
100 85 16 77 100 58 11 39 70 100 89 100 100 100 100 100 100 100 82 99 96 72 56 9 5 3 0 2 0 5 5 23
100 5 5 2 12 60 49 4 7 96 100 97 100 100 100 100 32 94 100 63 98 100 76 14 88 7 5 5 5 0 2 5
100 100 62 5 9 16 4 3 5 7 85 100 100 100 100 100 100 100 97 100 100 98 99 95 30 59 5 5 8 100 0 2
36 4 4 0 0 0 0 0 0 0 34 100 100 100 100 100 100 100 100 100 99 99 100 86 54 26 5 4 43 100 32 1
19 12 5 0 0 0 0 0 0 0 0 75 100 100 100 100 100 100 100 100 82 29 100 85 13 16 5 5 3 31 94 0
5 5 5 9 5 48 78 68 27 0 0 0 71 100 100 100 100 100 100 100 96 99 100 78 76 68 100 63 96 100 100 99
5 22 57 32 11 64 100 100 100 94 1 0 0 100 100 100 100 100 100 100 100 100 100 86 91 100 100 100 100 45 14 100
67 100 100 96 42 97 100 100 100 92 4 0 0 71 100 100 100 100 100 99 99 100 100 100 100 100 100 100 100 76 100 100
100 100 100 100 100 100 100 100 100 100 69 3 0 0 97 100 100 100 100 100 100 100 100 100 100 93 94 100 100 100 100 100
100 100 100 100 100 100 100 100 100 100 98 8 0 0 19 100 100 100 100 100 100 100 100 29 11 77 100 100 100 100 100 100
100 100 100 100 100 100 100 100 100 100 100 100 100 25 23 94 100 100 100 100 100 100 100 100 100 98 100 100 100 100 100 100
100 100 100 100 100 100 100 100 100 100 100 100 100 95 98 64 100 100 100 100 100 100 100 100 100 100 100 100 100 100 100 100
100 100 100 100 100 100 100 100 100 100 100 100 100 100 100 100 99 100 100 100 100 100 100 100 100 100 100 100 100 100 100 100